[[{"header":{"parameterUnit":"m.s-1","parameterCategory":1,"la1":30.2991,"la2":30.254,"lo1":-89.0895,"lo2":-89.0444,"dy":0.0017,"dx":0.0017,"nx":28,"ny":28,"refTime":"2026-02-13T09:00:00:Z","depth":0,"parameterNumber":2,"parameterNumberName":"U-component_of_WINDS"},"data":[0,0,0,0,0,0,0,0,0,0,0,0,0,0,0,0,0,0,0,0,0,0,0,0,0,0,0,0,0,0,0,0,0,0,0,0,0,0,0,0,0,0,0,0,0,0,0,0,0,0,0,0,0,0,0,0,0,0,-2.1768,-2.1768,0,-2.1821,-2.1822,-2.1822,-2.1774,-2.1772,-2.177,-2.1768,-2.1824,-2.1827,-2.1831,0,0,0,0,0,0,0,0,0,0,0,0,0,-2.1625,-2.1628,-2.1767,-2.1768,-2.1769,-2.1821,-2.1822,-2.1822,-2.1774,-2.1772,-2.1769,-2.1767,-2.1823,-2.1827,-2.1831,0,0,0,0,0,0,0,0,0,0,0,0,0,-2.1684,-2.1629,-2.1767,-2.1751,-2.175,-2.1821,-2.1822,-2.1823,-2.1775,-2.1772,-2.1769,-2.1766,-2.1822,-2.1827,-2.1832,-2.1922,0,0,-2.1847,-2.1849,0,0,0,0,0,0,0,0,-2.1681,-2.1689,-2.1753,-2.1752,-2.1751,-2.1788,-2.1792,-2.1856,-2.1775,-2.1765,-2.1768,-2.1765,-2.1815,-2.182,-2.1836,-2.1924,-2.1927,-2.1847,-2.185,-2.1852,-2.1854,0,0,0,0,0,0,0,-2.1677,-2.1687,-2.1789,-2.1754,-2.1753,-2.1742,-2.1747,-2.1804,-2.1806,-2.1766,-2.1763,-2.177,-2.1814,-2.1832,-2.1837,-2.1927,-2.1847,-2.1852,-2.1855,-2.1857,-2.2093,-2.2096,0,0,0,0,0,0,-2.1674,-2.1684,-2.1787,-2.179,-2.1708,-2.1747,-2.1752,-2.1779,-2.1805,-2.1806,-2.1772,-2.1767,-2.1825,-2.1832,-2.1839,-2.1947,-2.1852,-2.1857,-2.186,-2.209,-2.2094,-2.2097,0,0,0,0,0,0,-2.1671,-2.1684,-2.1785,-2.1736,-2.1748,-2.1752,-2.1783,-2.1782,-2.18,-2.181,-2.181,-2.179,-2.1823,-2.1832,-2.1902,-2.1948,-2.1859,-2.1864,-2.2086,-2.2091,-2.2095,-2.2162,0,0,0,0,0,0,-2.1667,-2.1683,-2.1717,-2.1737,-2.1751,-2.1846,-2.1786,-2.1785,-2.1808,-2.1802,-2.1827,-2.1828,-2.1821,-2.1894,-2.1907,-2.1953,-2.1868,-2.2082,-2.2088,-2.2094,-2.2156,-2.2169,-2.218,0,0,0,0,0,-2.1662,-2.1733,-2.1719,-2.1731,-2.1793,-2.1848,-2.1856,-2.1847,-2.1812,-2.1846,-2.1853,-2.1827,-2.1941,-2.1902,-2.1915,-2.1964,-2.2079,-2.2086,-2.2093,-2.215,-2.2166,-2.2179,0,0,0,0,0,0,-2.1718,-2.1736,-2.1719,-2.1799,-2.1823,-2.184,-2.1883,-2.1863,-2.1898,-2.1891,-2.1878,-2.1884,-2.1957,-2.1968,-2.1923,-2.2053,-2.2004,-2.2015,-2.2043,-2.2058,-2.207,-2.2066,-2.1872,0,0,0,0,0,-2.174,-2.1783,-2.1796,-2.1865,-2.1878,-2.1879,-2.1902,-2.1893,-2.1917,-2.1927,-2.1938,-2.1963,-2.2005,-2.2032,-2.2071,-2.2158,-2.2162,-2.2198,-2.221,-2.222,-2.2229,-2.2276,-2.2292,-2.2121,-2.2121,-2.2121,0,0,-2.1785,-2.18,-2.1827,-2.1877,-2.1894,-2.1939,-2.1887,-2.1937,-2.1971,-2.1935,-2.2,-2.201,-2.2037,-2.2116,-2.2151,-2.2127,-2.2277,-2.2229,-2.2237,-2.224,-2.2285,-2.2301,-2.2316,-2.2126,-2.2125,-2.2125,0,0,-2.1889,-2.1905,-2.1964,-2.1983,-2.201,-2.201,-2.2024,-2.2045,-2.205,-2.2117,-2.209,-2.2131,-2.2203,-2.2223,-2.2243,-2.2358,-2.2335,-2.2371,-2.2433,-2.248,-2.2493,-2.2505,-2.2546,-2.2561,-2.238,-2.238,-2.238,0,-2.1942,-2.2009,-2.1997,-2.205,-2.2073,-2.2042,-2.2102,-2.2121,-2.2159,-2.2176,-2.2149,-2.2239,-2.2255,-2.2338,-2.2366,-2.2383,-2.24,-2.2367,-2.2492,-2.2504,-2.2515,-2.2554,-2.2569,-2.2384,-2.2384,-2.2383,-2.2383,0,-2.2072,-2.2119,-2.2164,-2.2202,-2.223,-2.2286,-2.2284,-2.2314,-2.2303,-2.2306,-2.2375,-2.2393,-2.2436,-2.2455,-2.2444,-2.2537,-2.2522,-2.2494,-2.2444,-2.2535,-2.2572,-2.2587,-2.239,-2.2389,-2.2387,-2.2386,0,0,-2.2212,-2.2243,-2.226,-2.2277,-2.2305,-2.2342,-2.2398,-2.2439,-2.2465,-2.2493,-2.254,-2.2602,-2.2576,-2.2599,-2.2591,-2.2632,-2.2722,-2.2599,-2.2599,-2.2621,-2.2826,-2.2847,-2.2864,-2.2708,-2.2711,-2.2713,-2.2824,0,-2.2317,-2.2413,-2.2405,-2.2496,-2.254,-2.2512,-2.2561,-2.2584,-2.259,-2.2628,-2.2635,-2.2679,-2.2642,-2.2655,-2.2695,-2.2703,-2.2763,-2.2695,-2.2752,-2.2754,-2.2745,-2.2883,-2.2905,-2.3009,-2.2838,-2.2841,-2.2842,0,-2.2453,-2.2486,-2.2581,-2.2603,-2.2622,-2.2665,-2.2703,-2.274,-2.2766,-2.2768,-2.2794,-2.2779,-2.2837,-2.2787,-2.2866,-2.282,-2.2843,-2.2851,-2.2855,-2.2859,-2.2803,-2.2891,-2.3041,-2.3057,-2.2865,-2.2863,-2.2861,0,-2.2545,-2.2613,-2.2679,-2.2695,-2.2723,-2.2754,-2.2767,-2.2791,-2.2816,-2.285,-2.2867,-2.2907,-2.2929,-2.296,-2.2958,-2.2922,-2.3038,-2.2988,-2.3041,-2.3042,-2.3066,-2.3065,-2.3222,-2.3083,-2.3082,-2.3082,-2.3082,0,-2.2663,-2.2723,-2.2721,-2.2761,-2.2828,-2.2819,-2.2885,-2.2895,-2.2916,-2.2959,-2.2938,-2.2979,-2.2973,-2.3014,-2.3013,-2.3079,-2.3089,-2.3092,-2.3091,-2.3093,-2.3093,-2.3108,-2.31,-2.3086,-2.3085,-2.3084,-2.3084,0,-2.2777,-2.2778,-2.2848,-2.2869,-2.2876,-2.2924,-2.2942,-2.2981,-2.2986,-2.304,-2.3052,-2.3059,-2.3107,-2.3108,-2.3162,-2.3161,-2.3242,-2.3233,-2.3233,-2.3231,-2.3284,-2.3279,-2.3456,-2.3479,-2.3325,-2.3326,-2.3328,0,-2.2852,-2.2897,-2.2923,-2.295,-2.2965,-2.3009,-2.3035,-2.3029,-2.3057,-2.3092,-2.3127,-2.3172,-2.3208,-2.3286,-2.3297,-2.3339,-2.333,-2.3389,-2.3336,-2.3338,-2.3331,-2.3328,-2.3333,-2.3399,-2.3401,-2.3402,-2.3404,0,-2.2985,-2.2984,-2.3022,-2.3061,-2.3093,-2.3123,-2.3152,-2.3175,-2.3173,-2.3206,-2.3254,-2.3282,-2.3338,-2.3384,-2.3425,-2.344,-2.3422,-2.3421,-2.3435,-2.3438,-2.3436,-2.3438,-2.3261,-2.3416,-2.3415,-2.3414,-2.3413,-2.3413,-2.3081,-2.312,-2.3145,-2.3189,-2.3209,-2.3237,-2.3274,-2.3284,-2.3324,-2.3368,-2.3363,-2.3417,-2.3444,-2.3497,-2.3516,-2.3558,-2.3538,-2.3559,-2.3564,-2.3569,-2.3575,-2.343,-2.3566,-2.3566,-2.3565,-2.3565,-2.3565,0,-2.3213,-2.3228,-2.3268,-2.3308,-2.3343,-2.3323,-2.3354,-2.3385,-2.3432,-2.3459,-2.3495,-2.3551,-2.3596,-2.3611,-2.3654,-2.3686,-2.3679,-2.3698,-2.3695,-2.3699,-2.3591,-2.3574,-2.3703,-2.3703,-2.3703,-2.3703,-2.3703,-2.3703,-2.3285,-2.335,-2.3352,-2.3428,-2.3443,-2.3495,-2.3514,-2.354,-2.3561,-2.3624,-2.3661,-2.3671,-2.3693,-2.3739,-2.3779,-2.3783,-2.38,-2.3822,-2.3822,-2.372,-2.3706,-2.3693,-2.3677,-2.3826,-2.3826,-2.3926,-2.3927,-2.3928]},{"header":{"parameterUnit":"m.s-1","parameterCategory":1,"la1":30.2991,"la2":30.254,"lo1":-89.0895,"lo2":-89.0444,"dy":0.0017,"dx":0.0017,"nx":28,"ny":28,"refTime":"2026-02-13T09:00:00:Z","depth":0,"parameterNumber":3,"parameterNumberName":"V-component_of_WINDS"},"data":[0,0,0,0,0,0,0,0,0,0,0,0,0,0,0,0,0,0,0,0,0,0,0,0,0,0,0,0,0,0,0,0,0,0,0,0,0,0,0,0,0,0,0,0,0,0,0,0,0,0,0,0,0,0,0,0,0,0,0.3783,0.3784,0,0.3855,0.3856,0.3857,0.3892,0.3892,0.3892,0.3892,0.3967,0.3969,0.3971,0,0,0,0,0,0,0,0,0,0,0,0,0,0.368,0.3682,0.3783,0.3784,0.3785,0.3855,0.3856,0.3857,0.3892,0.3892,0.3892,0.3892,0.3966,0.3969,0.3971,0,0,0,0,0,0,0,0,0,0,0,0,0,0.3736,0.3683,0.3783,0.3811,0.3814,0.3855,0.3856,0.3857,0.3892,0.3892,0.3892,0.3892,0.3965,0.3968,0.3971,0.3989,0,0,0.398,0.3982,0,0,0,0,0,0,0,0,0.3733,0.374,0.3806,0.3809,0.3813,0.3865,0.3847,0.3902,0.3892,0.3863,0.3892,0.3892,0.3933,0.3939,0.3952,0.3993,0.3996,0.3981,0.3982,0.3984,0.3985,0,0,0,0,0,0,0,0.3729,0.3737,0.3812,0.3807,0.3811,0.3821,0.3829,0.3857,0.3897,0.3865,0.3868,0.3876,0.3935,0.3949,0.3954,0.3997,0.3981,0.3983,0.3985,0.3986,0.4059,0.4059,0,0,0,0,0,0,0.372,0.3733,0.381,0.3814,0.3772,0.3823,0.3832,0.3848,0.3897,0.3904,0.3876,0.3878,0.3944,0.3951,0.3957,0.3983,0.3984,0.3986,0.3988,0.4059,0.4059,0.4059,0,0,0,0,0,0,0.3718,0.3726,0.3807,0.3774,0.3785,0.3825,0.3843,0.385,0.3864,0.3905,0.3912,0.3883,0.3944,0.3953,0.3982,0.3986,0.3988,0.399,0.4059,0.4059,0.4059,0.4033,0,0,0,0,0,0,0.3715,0.3725,0.3732,0.3774,0.3787,0.3829,0.3843,0.3851,0.3869,0.3871,0.3913,0.392,0.3945,0.3977,0.3984,0.399,0.3993,0.4059,0.4059,0.4059,0.4034,0.4033,0.4032,0,0,0,0,0,0.3711,0.3721,0.3732,0.3741,0.3796,0.3829,0.3837,0.3864,0.3869,0.3876,0.3903,0.3919,0.3984,0.398,0.3988,0.3995,0.4058,0.4059,0.4059,0.4035,0.4033,0.4032,0,0,0,0,0,0,0.3678,0.3727,0.374,0.3764,0.3792,0.3835,0.3845,0.3861,0.3889,0.389,0.3924,0.3933,0.3959,0.398,0.3974,0.4016,0.4023,0.4025,0.4001,0.4,0.3999,0.3993,0.3995,0,0,0,0,0,0.3674,0.3696,0.3738,0.3756,0.377,0.3805,0.3821,0.384,0.387,0.3882,0.3911,0.3941,0.3968,0.3985,0.4013,0.4038,0.4048,0.4047,0.4045,0.4044,0.4045,0.4062,0.4062,0.4061,0.4061,0.4061,0,0,0.3665,0.3695,0.3707,0.3751,0.3774,0.3798,0.3815,0.3838,0.3857,0.3886,0.3915,0.3938,0.3973,0.4001,0.4014,0.4019,0.4049,0.4045,0.4043,0.4045,0.4062,0.4063,0.4063,0.4061,0.4061,0.4061,0,0,0.3662,0.3686,0.3704,0.3728,0.3764,0.3788,0.3793,0.3834,0.385,0.388,0.3903,0.3926,0.3971,0.3996,0.4015,0.4023,0.404,0.4031,0.4025,0.4041,0.4041,0.4041,0.4045,0.4046,0.4033,0.4033,0.4033,0,0.3646,0.3682,0.3711,0.3734,0.3753,0.3782,0.3801,0.3824,0.3867,0.388,0.3885,0.3944,0.397,0.4005,0.4007,0.4021,0.4028,0.4026,0.4038,0.4039,0.404,0.4044,0.4045,0.4031,0.4032,0.4032,0.4032,0,0.3662,0.3686,0.3697,0.3738,0.3759,0.378,0.3814,0.3831,0.3849,0.3873,0.3905,0.3937,0.3972,0.3982,0.3999,0.4019,0.4021,0.4032,0.4039,0.4038,0.4043,0.4044,0.403,0.403,0.4031,0.4031,0,0,0.3638,0.3697,0.3701,0.3721,0.3764,0.3784,0.3807,0.3842,0.3857,0.3886,0.3908,0.3947,0.3958,0.3979,0.4,0.4014,0.402,0.4023,0.4024,0.4022,0.4046,0.4038,0.4039,0.4031,0.4032,0.4032,0.4043,0,0.3641,0.3683,0.3711,0.3743,0.3767,0.3796,0.3816,0.3846,0.3869,0.3894,0.392,0.3948,0.3959,0.3973,0.3988,0.4016,0.4025,0.4015,0.4052,0.4053,0.4042,0.4041,0.4033,0.4041,0.4045,0.4045,0.4046,0,0.3649,0.3678,0.3712,0.3755,0.3766,0.3784,0.3819,0.3842,0.3877,0.3893,0.3918,0.3939,0.3967,0.3973,0.4012,0.4005,0.4022,0.4038,0.4039,0.4044,0.4049,0.4046,0.4045,0.4046,0.4049,0.4048,0.4048,0,0.3629,0.3677,0.3704,0.372,0.377,0.3783,0.3804,0.3839,0.3859,0.389,0.3903,0.3937,0.3956,0.3982,0.4013,0.4014,0.4049,0.4057,0.4065,0.4064,0.407,0.4069,0.4072,0.4081,0.4081,0.4081,0.4081,0,0.363,0.3649,0.3696,0.3713,0.3737,0.377,0.3793,0.3817,0.3848,0.3871,0.3898,0.3919,0.3959,0.3985,0.401,0.4039,0.4048,0.4062,0.4069,0.406,0.4058,0.4071,0.4072,0.4081,0.4081,0.4081,0.4081,0,0.3611,0.3643,0.3675,0.372,0.3732,0.3747,0.3787,0.3805,0.3831,0.3859,0.3868,0.3909,0.3941,0.3975,0.4019,0.4036,0.4065,0.4073,0.4053,0.4056,0.4062,0.4061,0.4073,0.4077,0.4083,0.4082,0.4082,0,0.3609,0.3625,0.3672,0.3689,0.371,0.3737,0.3758,0.3792,0.3813,0.3855,0.3868,0.3903,0.3932,0.3984,0.4018,0.4052,0.4062,0.4064,0.4067,0.4059,0.4063,0.4062,0.4064,0.4062,0.4062,0.4062,0.4062,0,0.3602,0.3618,0.3645,0.368,0.3703,0.3732,0.3762,0.3775,0.3815,0.3837,0.3871,0.3894,0.394,0.3974,0.4013,0.4037,0.4057,0.4061,0.4064,0.4055,0.4043,0.4051,0.4049,0.406,0.406,0.406,0.406,0.406,0.3592,0.3608,0.3645,0.3675,0.3702,0.3729,0.3749,0.3778,0.3806,0.3846,0.3865,0.3899,0.3936,0.3991,0.4014,0.4042,0.4048,0.4053,0.4054,0.4055,0.4053,0.4039,0.4049,0.4049,0.405,0.405,0.405,0,0.3587,0.3612,0.364,0.3682,0.3706,0.3723,0.3757,0.3777,0.3807,0.384,0.3869,0.3909,0.3943,0.398,0.4017,0.4033,0.4043,0.4041,0.4041,0.4046,0.4046,0.4039,0.4033,0.4033,0.4033,0.4033,0.4033,0.4033,0.3587,0.3616,0.3636,0.3679,0.3705,0.3738,0.3757,0.3783,0.381,0.3853,0.3882,0.3906,0.3941,0.3981,0.4014,0.4024,0.4037,0.4033,0.4046,0.4045,0.4046,0.4047,0.4041,0.4035,0.4035,0.4044,0.4044,0.4044]}]]